Regional Weather Roundup
Issued by NWS

Home | Current Version | Previous Version | Graphics & Text | Print | Product List | Glossary On
Versions: 1 2 3 4 5 6 7 8 9 10 11 12 13 14 15 16 17 18 19 20 21 22 23 24 25 26 27 28 29 30 31 32 33 34 35 36 37 38 39 40 41 42 43 44 45 46 47 48 49 50
314
ASUS43 KLMK 280710
RWRKY
KENTUCKY REGIONAL WEATHER ROUNDUP
NATIONAL WEATHER SERVICE LOUISVILLE KY
300 AM EDT SAT MAY 28 2016

NOTE "FAIR" INDICATES FEW OR NO CLOUDS BELOW 12,000 FEET
WITH NO SIGNIFICANT WEATHER AND/OR OBSTRUCTIONS TO VISIBILITY.

KYZ001>023-026-027-061>063-070>075-280800-
WESTERN AND SOUTH CENTRAL KENTUCKY

CITY           SKY/WX    TMP DP  RH WIND       PRES   REMARKS
PADUCAH        CLOUDY    73  63  70 CALM      29.91S
HENDERSON      CLEAR     73  63  68 SE8       29.94S
OWENSBORO      CLOUDY    74  68  81 S10       29.97S
HOPKINSVILLE   CLOUDY    73  66  77 SE6       29.96S
BOWLING GREEN  CLOUDY    71  66  84 SE7       30.00S
GLASGOW        CLOUDY    67  67 100 CALM      30.02S
$$

KYZ024-025-028>034-038-045-046-053-280800-
NORTH CENTRAL KENTUCKY

CITY           SKY/WX    TMP DP  RH WIND       PRES   REMARKS
LOUISVILLE/SDF CLOUDY    73  65  75 S8        29.99F
LOUISVILLE/LOU CLOUDY    71  65  81 S5        30.00F
FORT KNOX      MOCLDY    69  66  92 S7        29.98F
$$

KYZ035>037-039>044-047>052-055>060-089>105-280800-
NORTHEAST KENTUCKY

CITY           SKY/WX    TMP DP  RH WIND       PRES   REMARKS
LEXINGTON      CLEAR     69  64  84 SW7       30.05S
COVINGTON      MOCLDY    72  65  78 S9        30.01F
FRANKFORT      CLEAR     70  64  81 SE5       30.02F
$$

KYZ054-064>069-076>088-106>120-280800-
SOUTHEAST KENTUCKY

CITY           SKY/WX    TMP DP  RH WIND       PRES   REMARKS
JACKSON        PTCLDY    67  64  90 CALM      30.09S
LONDON         PTCLDY    67  62  84 CALM      30.08S
SOMERSET       PTCLDY    64  63  94 CALM      30.08R
MIDDLESBORO    CLEAR     62  62 100 CALM      30.11S
MONTICELLO     SUNNY     66  64  93 NE9       30.07F
$$





USA.gov is the U.S. government's official web portal to all federal, state and local government web resources and services.